Overview Statistics Trail Chart Weather Telemetry Raw packets
 

This is the latest recevied weather packets stored in our database for station/object KD7AWQ. If no packets are shown the sender has not sent any weather packets the latest 10 day(s).

<< 56 57 58 59 60 61 62 >>
Time Temp. Humidity Pressure Rain* Wind** Luminosity Snow
1788037446 35° C 22% 1186.4 hPa 0 mm - 392 W/m² -
1788037146 35° C 23% 1186.5 hPa 0 mm - 385 W/m² -
1788036846 35° C 23% 1186.4 hPa 0 mm - 305 W/m² -
1788036543 35° C 22% 1186.5 hPa 0 mm - 305 W/m² -
1788036243 35° C 22% 1186.5 hPa 0 mm - 312 W/m² -
1788035937 35° C 22% 1187 hPa 0 mm - 362 W/m² -
1788035632 34.44° C 23% 1187.1 hPa 0 mm - 265 W/m² -
1788035327 34.44° C 23% 1187.1 hPa 0 mm - 224 W/m² -
1788035023 34.44° C 23% 1186.9 hPa 0 mm - 221 W/m² -
1788034719 35° C 22% 1186.7 hPa 0 mm - 214 W/m² -
1788034415 35.56° C 22% 1186.6 hPa 0 mm - 150 W/m² -
1788034111 36.67° C 21% 1186.7 hPa 0 mm - 205 W/m² -
1788033820 36.67° C 21% 1187.2 hPa 0 mm - 182 W/m² -
1788033504 36.11° C 21% 1187 hPa 0 mm - 1064 W/m² -
1788033199 37.22° C 20% 1187.3 hPa 0 mm - 1056 W/m² -
1788032895 36.11° C 21% 1187.3 hPa 0 mm - 1046 W/m² -
1788032594 36.67° C 21% 1187.4 hPa 0 mm - 1031 W/m² -
1788032289 35.56° C 22% 1187.8 hPa 0 mm - 1028 W/m² -
1788031984 36.11° C 22% 1187.7 hPa 0 mm - 1034 W/m² -
1788031680 35.56° C 22% 1187.8 hPa 0 mm - 1036 W/m² -
1788031379 35.56° C 22% 1188.1 hPa 0 mm - 1034 W/m² -
1788031074 35.56° C 22% 1187.9 hPa 0 mm - 1027 W/m² -
1788030774 35° C 23% 1188.1 hPa 0 mm - 1026 W/m² -
1788030474 34.44° C 23% 1188.2 hPa 0 mm - 1016 W/m² -
1788030168 35° C 23% 1188.3 hPa 0 mm - 1008 W/m² -

* Rain latest hour (hover to see other rain measurements)
** Current wind speed in m/s (hover to see current wind gust speed)